Regional Weather Roundup
Issued by NWS Wakefield, VA

Home | Current Version | Previous Version | Graphics & Text | Print | Product List | Glossary On
Versions: 1 2 3 4 5 6 7 8 9 10 11 12 13 14 15 16 17 18 19 20 21 22 23 24 25 26 27 28 29 30 31 32 33 34 35 36 37 38 39 40 41 42 43 44 45 46 47 48 49 50
000
ASUS41 KAKQ 020815
RWRAKQ

REGIONAL WEATHER ROUNDUP
NATIONAL WEATHER SERVICE WAKEFIELD VA
300 AM EST FRI DEC 02 2016

Note: "fair" indicates few or no clouds below 12,000 feet with no
significant weather and/or obstructions to visibility. * = Denotes
station may not report precipitation (e.g., rain,snow,etc.),
thunder or fog.

VAZ042-051-052>054-056-020900-
NORTHERN VIRGINIA

CITY           SKY/WX    TMP DP  RH WIND       PRES   REMARKS
WASH NATIONAL  CLOUDY    47  28  47 NW12      30.01R
DULLES         CLOUDY    44  28  53 NW8       30.01R
FORT BELVOIR   CLOUDY    45  28  50 NW7       30.01R
QUANTICO       CLEAR     40  30  67 N7        30.02S
FREDERICKSBRG* PTCLDY    33  32  97 SW3       30.02R
STAFFORD*      CLEAR     31  31 100 CALM      30.05R
WARRENTON      CLEAR     33  27  78 CALM      30.00S
CULPEPER*      PTCLDY    33  31  93 CALM      30.02R
MANASSAS*      CLOUDY    43  30  61 NW7       30.01F
LEESBURG*      CLOUDY    45  32  61 NW9       30.01S
WINCHESTER     CLOUDY    41  27  56 W9G17     30.00R
FRONT ROYAL*   CLOUDY    43  28  56 W6        29.99S
LURAY*         CLOUDY    43  32  65 W6        30.00S
$$

VAZ048-049-060>072-079>083-020900-
CENTRAL AND SOUTH CENTRAL VIRGINIA

CITY           SKY/WX    TMP DP  RH WIND       PRES   REMARKS
RICHMOND       PTCLDY    35  31  85 CALM      30.03R
CHESTERFIELD*  FAIR      36  18  48 CALM      30.05R
PETERSBURG*    PTCLDY    31  30  94 CALM      30.05R
HANOVER        PTCLDY    34  31  88 CALM      30.04R
TAPPAHANNOCK*  PTCLDY    34  32  94 CALM      30.03R
QUINTON*       FAIR      33  32  96 CALM      30.03R
CHARLOTTSVILLE CLEAR     41  27  57 SW3       30.01R
GORDONSVILLE*  FAIR      31  29  94 CALM      30.01R
ORANGE*          N/A     32  32 100 CALM      30.03R
LOUISA*        CLEAR     34  32  93 CALM      30.01R
BUMPASS*       FAIR      31  30  97 CALM      30.02R
FARMVILLE*     PTCLDY    34  32  91 SW3       30.03R
CREWE*         FAIR      33  33 100 CALM      30.04R
FORT PICKETT*  FAIR      36  28  73 NW5       30.04R
CHASE CITY*    FAIR      33  32  94 CALM      30.04S
CLARKSVILLE*   FAIR      36  30  80 CALM      30.04R
SOUTH HILL*    CLEAR     33  31  93 CALM      30.10R
LAWRENCEVILLE* FAIR      34  32  91 CALM      30.04R
EMPORIA*       PTCLDY    32  30  93 CALM      30.06R
$$

VAZ088>098-020900-
SOUTHEAST VIRGINIA

CITY           SKY/WX    TMP DP  RH WIND       PRES   REMARKS
NORFOLK        CLEAR     49  32  52 N13       30.01R
VIRGINIA BEACH CLEAR     44  32  62 N7        30.00R
NORFOLK NAVAL  CLEAR     47  33  58 N9        30.03R
WEST POINT*    PTCLDY    31  30  95 CALM      30.05R
SALUDA*        FAIR      39  35  85 CALM      30.01R
NEWPORT NEWS   CLEAR     35  32  88 CALM      30.02R
LANGLEY AFB    CLEAR     40  34  79 NW5       30.01R
FORT EUSTIS    PTCLDY    39  30  71 CALM      30.00R
WILLIAMSBURG*  PTCLDY    39  36  87 CALM      30.04R
HR EXEC AP*    FAIR      34  28  80 CALM      30.01R
FRANKLIN*      PTCLDY    34  32  92 CALM      30.05R
US460-WAKEFLD  PTCLDY    33  31  92 CALM      30.04R
$$

VAZ020-022-025-037-045-020900-
WEST CENTRAL AND SOUTHWEST VIRGINIA

CITY           SKY/WX    TMP DP  RH WIND       PRES   REMARKS
STAUNTON*      CLOUDY    37  32  82 CALM      30.02R
WAYNESBORO*    CLOUDY    39  28  64 CALM      30.00R
HOT SPRINGS VA CLOUDY    32  27  80 W18G25    29.91S WCI  20
LYNCHBURG      PTCLDY    31  27  85 CALM      30.03S
DANVILLE       PTCLDY    32  30  92 CALM      30.04S
SOUTH BOSTON*  FAIR      32  31  96 CALM      30.04F
MARTINSVILLE   CLEAR     30  28  92 CALM      30.06S
ROANOKE        PTCLDY    44  27  51 NW17      30.05R
BLACKSBURG     CLOUDY    39  29  68 W8G17     30.05S
DUBLIN*        PTCLDY    38  29  70 NW10G18   30.04S
MARION*        CLEAR     32  30  92 SW10      30.07R WCI  24
HILLSVILLE*    CLEAR     34  28  80 NW10      30.00S
RICHLANDS*     FAIR      33  28  81 W6        30.05S
WISE*          CLEAR     32  27  80 SW6       30.07S
ABINGDON*      CLEAR     31  30  96 CALM      30.08R
$$

MDZ021>025-VAZ099-100-020900-
SOUTHERN MARYLAND AND THE DELMARVA PENINSULA

CITY           SKY/WX    TMP DP  RH WIND       PRES   REMARKS
PATUXENT RIVER PTCLDY    39  29  67 W7        30.00R
BAY BRIDGE APT CLEAR     45  30  57 NW12G20   30.00
LEONARDTOWN    CLEAR     36  30  80 CALM      30.01S
DOVER          CLOUDY    44  30  57 W17       29.95S
GEORGETOWN     CLOUDY    35  32  88 W3        29.98R
EASTON         CLOUDY    46  30  52 N9G17     30.03R
CAMBRIDGE      MOCLDY    43  32  65 NW10G16   29.99R
SALISBURY      CLEAR     33  32  96 CALM      29.99R
OCEAN CITY     CLEAR     32  30  92 W3        29.98R
WALLOPS ISLAND CLEAR     37  34  89 W5        30.00R
ACCOMACK*      CLEAR     44  33  65 NW7       30.00R
$$

NCZ012>017-030>032-020900-
NORTH CENTRAL AND EASTERN NORTH CAROLINA

CITY           SKY/WX    TMP DP  RH WIND       PRES   REMARKS
ROANOKE RAPIDS FAIR      39  32  75 CALM      30.05R
RALEIGH        PTCLDY    40  29  64 CALM      30.05R
ELIZABETH CITY CLEAR     40  36  86 NW6       30.01R
AHOSKIE*       CLEAR     39  33  78 CALM      30.04R
EDENTON*       CLEAR     44  37  76 CALM      30.02R
CURRITUCK*     CLEAR     48  37  66 N5        30.01R
KILL DEVIL HLS CLEAR     51  45  79 N9        29.97R
MANTEO         CLEAR     51  44  78 NE10      29.98S
CAPE HATTERAS  CLEAR     53  41  63 NW7       29.97S
TARBORO*       NOT AVBL
GOLDSBORO      CLEAR     45  32  61 N5        30.03R
WASHINGTON     PTCLDY    42  34  73 NW3       30.03R
GREENVILLE     PTCLDY    43  34  70 N5        30.06R
NEW BERN       PTCLDY    45  35  68 N9        30.03R
WILMINGTON     PTCLDY    47  40  76 N10       30.02R
$$

VAZ048-020900-
ELSEWHERE

CITY           SKY/WX    TMP DP  RH WIND       PRES   REMARKS
HARRISBURG PA  PTCLDY    42  28  57 W12       29.94S
BALTIMORE      PTCLDY    41  28  60 W6        29.99R
ANNAPOLIS      CLEAR     47  29  49 NW9G18    29.99R
ANDREWS AFB    CLOUDY    45  27  49 NW12      29.99R
PHILADELPHIA   CLEAR     41  29  62 W9        29.95R
HENDERSON NC   CLEAR     38  26  61 CALM      30.04S
GREENSBORO     CLEAR     41  31  67 N6        30.02S
ROCKY MOUNT    CLEAR     37  34  89 CALM      30.06R
$$

VAZ100-020900-
MARINE

STATION/POSITION TIME  TEMP    WIND        PRES    WAVE   SWELL
                       AIR SEA DIR/SP/G            HT/PER HT/PER
                 (UTC) (F)     (DEG/KT/KT) (MB)    (FT/S) (FT/S)
BRANDYWINE LGT   0748   46     310/ 16/ 20   N/A
CAPE MAY NJ      0748   46 50  310/ 12/ 20 1013.8S
LEWES DE         0748   45 51  300/  9/ 11 1014.7R
OCEAN-CITY-INLET 0748   42 52  290/  4/  5 1015.5R
WACHAPREAGUE VA  0748   41 55   CALM  /  1 1016.0R
THOMAS POINT MD  0800   46 51  310/ 16/ 19   N/A
GOOSES REEF MD   0750   47     320/ 14/ 17 1016.4R
COVE POINT MD    0748   44     330/  9/ 14 1016.4R
SOLOMONS ISLAND  0748   43 53  260/  5/  6   N/A
BISHOPS HEAD MD  0748   46 51  310/ 12/ 14 1016.1R
PINEY POINT MD   0748          340/ 15/ 17   N/A
POTOMAC MD       0750   48     320/ 14/ 16 1015.3R
CAMBRIDGE MD     0748   47 49  300/ 15/ 22 1014.8R
LEWISETTA VA     0748   43 53  270/  6/  6 1015.9R
RAPPAHANNOCK LGT 0748          330/ 18/ 19 1016.5R
STINGRAY PT      0750   47     340/ 10/ 12 1016.5R
YORK RVR RNG VA  0748   47     340/  7/  9 1016.0R
YORKTOWN VA      0748   47 54  310/  5/  6 1016.1R
JAMESTOWN VA     0750   44     360/  2/  4   N/A
DOMINION TERM VA 0748   47     340/  1/  4 1016.4R
KIPTOPEKE VA     0748      54   40/  3/  5   N/A
CHES BAY BRIDGE  0748   49 54   10/ 15/ 17 1015.9R
CAPE HENRY VA    0748   49      10/ 14/ 16   N/A
WILLOUBY STN VA  0748   48     350/  6/  7 1017.2R
S CRANEY ISL VA  0748   48     350/  7/ 11 1016.0R
CAPE HENRY BUOY  0742      56                N/A     4/ 5
1ST LANDING BUOY 0750   50                 1016.5R
CAPE CHARLES BUO 0756      56                N/A     3/ 5
OFFSHORE WE BUOY 0751      57                N/A     5/ 5
64NM E OF VA BCH 0750   53 59  360/ 17/ 21 1014.5R   5/ 5   2/ 8
DUCK PIER NC     0748   52 58   10/ 16/ 20 1014.7R
44100 DUCK FRF   0735      57                N/A     3/ 4
OREGON INLET NC  0742   53 60   10/  9/ 13 1014.8R
HATTERAS NC      0748   54 64  330/ 15/ 17 1014.5S
DIAMOND SHLS NC  0750   59 75  340/ 16/ 17 1014.7R   4/ 8   2/ 8
CAPE LOOKOUT NC  0800   52     350/ 12/ 15 1015.3R
$$



USA.gov is the U.S. government's official web portal to all federal, state and local government web resources and services.